This is the latest recevied weather packets stored in our database for station/object N8BAP. If no packets are shown the sender has not sent any weather packets the latest 1 day(s).
| Time | Temp. | Humidity | Pressure | Rain* | Wind** | Luminosity | Snow |
|---|---|---|---|---|---|---|---|
| 1778000418 | 20° C | 61% | 1014.8 hPa | 0 mm | 2.68 m/s, 241° | 149 W/m² | - |
| 1778000114 | 19.44° C | 62% | 1014.8 hPa | 0 mm | 3.13 m/s, 207° | 166 W/m² | - |
| 1777999809 | 19.44° C | 61% | 1014.6 hPa | 0 mm | 3.58 m/s, 207° | 144 W/m² | - |
| 1777999501 | 19.44° C | 62% | 1014.8 hPa | 0 mm | 2.68 m/s, 246° | 182 W/m² | - |
| 1777999198 | 19.44° C | 62% | 1014.5 hPa | 0 mm | 4.02 m/s, 247° | 126 W/m² | - |
| 1777998897 | 19.44° C | 61% | 1014.7 hPa | 0 mm | 4.92 m/s, 214° | 112 W/m² | - |
| 1777998596 | 19.44° C | 60% | 1014.8 hPa | 0 mm | 3.13 m/s, 215° | 140 W/m² | - |
| 1777998291 | 19.44° C | 60% | 1014.7 hPa | 0 mm | 5.36 m/s, 224° | 111 W/m² | - |
| 1777997988 | 19.44° C | 60% | 1014.6 hPa | 0 mm | 4.92 m/s, 244° | 173 W/m² | - |
| 1777997685 | 19.44° C | 60% | 1014.7 hPa | 0 mm | 4.47 m/s, 266° | 205 W/m² | - |
| 1777997382 | 19.44° C | 60% | 1014.6 hPa | 0 mm | 5.36 m/s, 231° | 262 W/m² | - |
| 1777997081 | 20° C | 61% | 1014.7 hPa | 0 mm | 4.02 m/s, 218° | 246 W/m² | - |
| 1777996777 | 20° C | 60% | 1014.5 hPa | 0 mm | 4.92 m/s, 233° | 321 W/m² | - |
| 1777996473 | 20° C | 61% | 1014.7 hPa | 0 mm | 4.47 m/s, 217° | 355 W/m² | - |
| 1777996170 | 20° C | 61% | 1014.5 hPa | 0 mm | 4.47 m/s, 232° | 395 W/m² | - |
| 1777995866 | 20° C | 61% | 1014.4 hPa | 0 mm | 2.68 m/s, 234° | 353 W/m² | - |
| 1777995562 | 20° C | 61% | 1014.6 hPa | 0 mm | 3.13 m/s, 240° | 365 W/m² | - |
| 1777995260 | 20° C | 61% | 1014.5 hPa | 0 mm | 4.02 m/s, 241° | 358 W/m² | - |
| 1777994956 | 19.44° C | 61% | 1014.5 hPa | 0 mm | 3.58 m/s, 249° | 394 W/m² | - |
| 1777994653 | 19.44° C | 62% | 1014.7 hPa | 0 mm | 3.58 m/s, 241° | 355 W/m² | - |
| 1777994348 | 20° C | 61% | 1014.7 hPa | 0 mm | 5.36 m/s, 240° | 455 W/m² | - |
| 1777994045 | 19.44° C | 61% | 1014.5 hPa | 0 mm | 3.13 m/s, 229° | 600 W/m² | - |
| 1777993741 | 18.89° C | 64% | 1014.4 hPa | 0 mm | 2.24 m/s, 234° | 513 W/m² | - |
| 1777993438 | 18.89° C | 63% | 1014.3 hPa | 0 mm | 5.81 m/s, 263° | 367 W/m² | - |
| 1777993133 | 18.89° C | 64% | 1014.2 hPa | 0 mm | 2.68 m/s, 236° | 271 W/m² | - |
* Rain latest hour (hover to see other rain measurements)
** Current wind speed in m/s (hover to see current wind gust speed)